Starlink 31293

operational
NORAD ID: 58952 Int'l Des: 2024-027 Owner: SPXS Country: US Constellation: starlink
LEOCIRCULAR

关于 Starlink 31293

正在加载描述...

实时位置

正在加载3D地球...

即将过境

高度历史

Altitude vs Time

uPlot chart will show altitude changes over time

两行轨道根数

1 58952U 24027X 25354.23337838 .00002974 00000-0 11242-3 0 9995
2 58952 53.1615 318.6560 0001163 114.4510 245.6612 15.30217039105168
Epoch: Dec 20, 2025 • Age: 25 hours

当前状态

高度 487.0 km
速度 7.62 km/s
星下点 -34.94°S, 95.14°E
发射日期 Feb 10, 2024
运行时间 1.8 years
类型 internet

技术详情

分类 Payload
质量 730.00 kg
干质量 700.00 kg
总质量 730.00 kg
长度 0.30 m
直径 4.10 m
跨度 29.00 m
形状 Box + pan
制造商 SPXS
平台类型 Starlink V2M
阶段状态 In Orbit
所有者/国家 SPXS/US

大型星座

Loading constellations...